This is the latest recevied weather packets stored in our database for station/object DAX207-13. If no packets are shown the sender has not sent any weather packets the latest 1 day(s).
| Time | Temp. | Humidity | Pressure | Rain* | Wind** | Luminosity | Snow |
|---|---|---|---|---|---|---|---|
| 1778179824 | 8.89° C | 92% | 1019.5 hPa | 0 mm | - | 3 W/m² | - |
| 1778179224 | 8.33° C | 92% | 1019.4 hPa | 0 mm | - | 6 W/m² | - |
| 1778178624 | 8.89° C | 92% | 1019.2 hPa | 0 mm | - | 7 W/m² | - |
| 1778178024 | 8.89° C | 92% | 1019.2 hPa | 0 mm | - | 11 W/m² | - |
| 1778177424 | 8.89° C | 92% | 1019.1 hPa | 0 mm | - | 13 W/m² | - |
| 1778176824 | 8.89° C | 91% | 1019.2 hPa | 0 mm | - | 16 W/m² | - |
| 1778176224 | 8.89° C | 91% | 1019.2 hPa | 0 mm | - | 22 W/m² | - |
| 1778175624 | 8.89° C | 89% | 1019.1 hPa | 0 mm | - | 31 W/m² | - |
| 1778175024 | 8.89° C | 89% | 1018.9 hPa | 0 mm | - | 26 W/m² | - |
| 1778174424 | 8.89° C | 90% | 1019 hPa | 0 mm | - | 41 W/m² | - |
| 1778173824 | 8.89° C | 90% | 1018.8 hPa | 0 mm | - | 25 W/m² | - |
| 1778173224 | 8.89° C | 89% | 1018.9 hPa | 0 mm | - | 21 W/m² | - |
| 1778172624 | 8.89° C | 90% | 1018.8 hPa | 0 mm | - | 23 W/m² | - |
| 1778172024 | 8.89° C | 89% | 1018.9 hPa | 0 mm | - | 26 W/m² | - |
| 1778171424 | 8.89° C | 89% | 1018.6 hPa | 0 mm | - | 29 W/m² | - |
| 1778170824 | 8.89° C | 88% | 1018.8 hPa | 0 mm | - | 38 W/m² | - |
| 1778170224 | 8.89° C | 89% | 1018.5 hPa | 0 mm | - | 48 W/m² | - |
| 1778169624 | 8.89° C | 90% | 1018.6 hPa | 0 mm | - | 55 W/m² | - |
| 1778169024 | 8.89° C | 89% | 1018.6 hPa | 0 mm | - | 48 W/m² | - |
| 1778168424 | 8.89° C | 89% | 1018.8 hPa | 0 mm | - | 34 W/m² | - |
| 1778167824 | 8.89° C | 90% | 1018.4 hPa | 0 mm | - | 46 W/m² | - |
| 1778167224 | 8.33° C | 90% | 1018.4 hPa | 0 mm | - | 60 W/m² | - |
| 1778166624 | 8.89° C | 90% | 1018.4 hPa | 0 mm | - | 66 W/m² | - |
| 1778166024 | 8.33° C | 90% | 1018.4 hPa | 0 mm | - | 93 W/m² | - |
| 1778165424 | 8.33° C | 91% | 1018.3 hPa | 0 mm | - | 98 W/m² | - |
* Rain latest hour (hover to see other rain measurements)
** Current wind speed in m/s (hover to see current wind gust speed)